Home   Weather   Nanjing   Past weeks

Flag for China Past Weather in Nanjing, Jiangsu, China — Yesterday and Last 2 Weeks

Now
70 °F

Clear.


Feels Like: 70 °F
Forecast: 61 / 83 °F
Wind: 1 mph from North

Location: Nanjing

Current Time: Apr 30, 2017 at 8:54:37 pm

Latest Report: Apr 30, 2017 at 8:00 pm


Visibility: 10 mi

Pressure: 29.83 "Hg

Humidity: 64%

Dew Point: 57 °F

Location of NanjingLocation

Past Weather in Nanjing — Graph

°F

Nanjing Temperature Yesterday

Maximum temperature yesterday: 86 °F (at 3:00 pm)
Minimum temperature yesterday: 59 °F (at 3:00 am)
Average temperature yesterday: 71 °F

High & Low Weather Summary for the Past Weeks

 TemperatureHumidityPressure
High86 °F (Apr 16, 12:00 pm)100% (Apr 17, 12:00 am)30.15 "Hg (Apr 17, 12:00 am)
Low50 °F (Apr 28, 4:00 am)20% (Apr 29, 3:00 pm)29.62 "Hg (Apr 18, 4:00 am)
Average68 °F62%29.89 "Hg
* Reported Apr 15 7:00 pm — Apr 30 7:00 pm, Nanjing, Weather by CustomWeather, © 2017

Note: Actual official high and low records may vary slightly from our data, if they occured in-between our weather recording intervals... More about our weather records

Advertising

Nanjing Weather History for the Previous 24 Hours

Scroll right to see more
 ConditionsComfort  
Time TempWeatherWind HumidityBarometerVisibility
7:00 pm
Sun, Apr 30
77 °FClear.3 mph42%29.83 "Hg10 mi
6:00 pm79 °FSunny.3 mph32%29.80 "Hg10 mi
5:00 pm84 °FSunny.6 mph23%29.80 "Hg10 mi
4:00 pm86 °FPassing clouds.8 mph27%29.80 "HgN/A
3:00 pm86 °FPassing clouds.6 mph25%29.80 "HgN/A
2:00 pm86 °FPassing clouds.6 mph25%29.80 "HgN/A
1:00 pm84 °FSunny.6 mph31%29.83 "Hg10 mi
12:00 pm82 °FPassing clouds.6 mph35%29.83 "HgN/A
11:00 am82 °FPassing clouds.6 mph35%29.86 "HgN/A
10:00 am79 °FPassing clouds.8 mph37%29.89 "HgN/A
9:00 am77 °FPassing clouds.8 mph34%29.86 "HgN/A
8:00 am72 °FSunny.1 mph50%29.86 "Hg10 mi
7:00 am64 °FSunny.1 mph68%29.86 "Hg10 mi
6:00 am59 °FSunny.3 mph77%29.83 "Hg10 mi
5:00 am59 °FClear.3 mph77%29.83 "Hg10 mi
4:00 am63 °FClear.3 mph64%29.83 "Hg10 mi
3:00 am63 °FClear.6 mph64%29.80 "Hg10 mi
2:00 am64 °FClear.3 mph60%29.83 "Hg10 mi
1:00 am63 °FClear.3 mph59%29.83 "Hg10 mi
12:00 am66 °FClear.6 mph49%29.83 "Hg10 mi
11:00 pm
Sat, Apr 29
68 °FClear.8 mph43%29.83 "Hg10 mi
10:00 pm64 °FClear.6 mph49%29.83 "Hg10 mi
9:00 pm64 °FClear.6 mph56%29.86 "Hg10 mi
8:00 pm66 °FClear.3 mph52%29.83 "Hg10 mi
Weather by CustomWeather, © 2017

See weather overviewHow to use our weather pages